Voltar ao catálogo

COSMOS 2596

AtivoNavegaçãoMEO
NORAD 65589·PAYLOAD·🇷🇺 Russia

Lançado Sep 13, 2025 de Plesetsk Cosmodrome

Loading…

Próximas Passagens (próximas 24 horas)

TLE

AtualizadoSource: Space-Track

Época: Sep 14, 2026, 13:02 UTC

1 65589U 25206A   26257.54370946 -.00000054  00000-0  00000-0 0  9998
2 65589  64.5818 311.6579 0066134 304.1651  55.2829  2.14901372  7871

Acompanhe COSMOS 2596 em tempo real com AllMySat

Download on the App Store